Regional Weather Roundup
Issued by NWS Grand Forks, ND

Home | Current Version | Previous Version | Text Only | Print | Product List | Glossary Off
Versions: 1 2 3 4 5 6 7 8 9 10 11 12 13 14 15 16 17 18 19 20 21 22 23 24 25 26 27 28 29 30 31 32 33 34 35 36 37 38 39 40 41 42 43 44 45 46 47 48 49 50

000
ASUS43 KFGF 131131
RWRFGF
PRAIRIE TO PINES  WEATHER ROUNDUP
NATIONAL WEATHER SERVICE EASTERN NORTH DAKOTA/GRAND FORKS ND
600 AM CDT SUN JUL 13 2014

 **SATELLITE DATA USED TO AUGMENT SKY COVER AT AUTOMATED STATIONS**
 *****  WEATHER ACROSS EASTERN NORTH DAKOTA  *****

CITY           SKY/WX    TMP DP  RH WIND       PRES   REMARKS
GRAND FORKS    CLEAR     51  48  89 W7        29.93S
GRAND FRKS AFB CLEAR     53  52  95 NW9       29.95R
GRAND FRKS NWS   N/A     48 N/A N/A W7          N/A
DEVILS LAKE    CLEAR     57  46  67 NW13      29.98S
FARGO          CLEAR     54  51  90 W5        29.96S
WAHPETON ARPT  SUNNY     48  45  87 SW3       29.99R
$$

 ***** WEATHER ACROSS CENTRAL AND WESTERN NORTH DAKOTA  *****

CITY           SKY/WX    TMP DP  RH WIND       PRES   REMARKS
BISMARCK       CLEAR     57  52  83 NW6       30.07S
MINOT          CLEAR     54  44  69 W13       30.07R
JAMESTOWN      CLEAR     58  55  90 NW8       30.00R
MINOT AFB      CLEAR     53  49  88 W10       30.06S
GARRISON         N/A     50  47  89 NW9       30.08R
WILLISTON      CLEAR     54  46  74 NE5       30.14R
DICKINSON      CLEAR     52  48  86 NW6       30.13R
HETTINGER      CLEAR     52  49  89 NW6       30.14S
$$

 *****  OTHER AIRPORT OBSERVATIONS IN OUR AREA  *****

CITY           SKY/WX    TMP DP  RH WIND       PRES   REMARKS
WALHALLA         N/A     52  50  93 W8          N/A
GRAFTON AIRPOR FAIR      54  48  82 W10       29.93S
VALLEY CITY AR FAIR      55  55 100 NW9       30.00R
CANDO          FAIR      50  48  93 W10       30.01R
CAVALIER APRT  FAIR      50  46  87 W8        29.93S
GWINNER        SUNNY     55  55 100 W7        30.01R
SHEYENNE NWR     N/A     52  51  97 W3        29.95S
ROLLA          FAIR      54  45  71 NW10      30.02R
 ***** THE ABOVE OBSERVATIONS ARE NON NWS ARE NOT QUALITY
       CONTROLLED AND MAY MIS-REPORT RAIN FOR SNOW...
$$

  *****  WEATHER ACROSS NORTHERN MINNESOTA  *****

CITY           SKY/WX    TMP DP  RH WIND       PRES   REMARKS
FLAG ISLAND    MOCLDY    55  48  76 SW14      29.82F
WARROAD        MOCLDY    54  48  82 SW5       29.87S
ROSEAU         PTCLDY    52  46  82 SW7       29.88S
HALLOCK        CLEAR     54  52  94 W7        29.91S
THF RVR FALLS  CLEAR     52  52 100 W8        29.92S
BAUDETTE       CLOUDY    54  49  83 VRB5      29.87F
WASKISH        PTCLDY    57  50  77 W15       29.89S
CROOKSTON      CLEAR     54  52  94 W8        29.94R
$$
  *****  WEATHER ACROSS CENTRAL AND WEST MINNESOTA  *****

CITY           SKY/WX    TMP DP  RH WIND       PRES   REMARKS
FOSSTON        CLOUDY    54  52  94 CALM      29.94F FOG
BEMIDJI        CLOUDY    52  52  99 W6        29.93R FOG
PARK RAPIDS    FOG       51  51 100 W8        29.95R VSB 1/4
ELBOW LAKE     FAIR      52  52 100 W5        29.99R
WADENA         CLEAR     52  52 100 W5        29.96R FOG
DETROIT LAKES  CLOUDY    55  55 100 NW5       29.97F
MOORHEAD       CLEAR     54  54 100 SW6       29.97S
FERGUS FALLS   CLEAR     52  52 100 W3        29.99R FOG
MORRIS MN      CLEAR     54  52  94 W5        29.99R
STAPLES        CLEAR     52  52 100 W3        29.96R
$$
  *****  WEATHER ELSEWHERE ACROSS MINNESOTA  *****

CITY           SKY/WX    TMP DP  RH WIND       PRES   REMARKS
DULUTH         PTCLDY    52  49  89 W8        29.89R
INTRNTL FALLS  CLEAR     50  47  89 W8        29.85S
ELY            CLEAR     48  48 100 W5        29.86R
CLOQUET        CLEAR     52  48  87 W5        29.91R
WHEATON        CLEAR     54  52  94 CALM      30.01R
BRAINERD       CLEAR     59  51  75 NW3       29.94S
HIBBING        PTCLDY    50  47  89 W3        29.89S
ALEXANDRIA     CLEAR     56  53  90 W7        29.99R
SAINT CLOUD    CLEAR     57  53  86 CALM      29.95R
MINNEAPOLIS    CLEAR     64  57  78 N6        29.94R
$$

  *****  WEATHER ACROSS SOUTH DAKOTA  *****

CITY           SKY/WX    TMP DP  RH WIND       PRES   REMARKS
SIOUX FALLS    PTCLDY    65  62  90 W3        30.02R
BROOKINGS      NOT AVBL
WATERTOWN      CLEAR     60  56  86 CALM      30.02R
HURON          CLEAR     61  59  93 NW6       30.03R
SISSETON         N/A     54  52  93 SW3       29.99R
ABERDEEN       CLEAR     53  52  96 W5        30.02S
MITCHELL       CLEAR     64  61  90 SW5       30.04R
PIERRE         CLEAR     63  62  97 W5        30.06R
MOBRIDGE       CLEAR     58  55  90 NW5       30.05R
RAPID CITY     CLEAR     58  54  86 N7        30.19S
$$

  *****  SOME WEATHER IN NEARBY STATES *****

CITY           SKY/WX    TMP DP  RH WIND       PRES   REMARKS
GLASGOW MT     NOT AVBL
GREAT FALLS MT NOT AVBL
CHEYENNE WY    CLEAR     58  55  90 W7        30.36S
SCOTTSBLUFF NE CLEAR     62  60  93 CALM      30.25S
OMAHA NE       MOCLDY    67  65  93 CALM      30.05R
DES MOINES IA  FOG       67  65  93 W5        30.02R VSB 1/4
DAVENPORT IA     N/A     66  64  93 W6        29.97R FOG
CHICAGO IL     MOCLDY    69  64  84 W5        29.90R
EAU CLAIRE WI  PTCLDY    63  62  97 W5        29.90R
LA CROSSE WI   CLEAR     64  63  96 S6        29.91S
$$

  *****  SOME NATIONAL WEATHER *****

CITY           SKY/WX    TMP DP  RH WIND       PRES   REMARKS
LA GUARDIA NY  PTSUNNY   72  66  81 S8        30.09S
RALEIGH NC     PTCLDY    73  69  87 SW5       30.15R
ATLANTA GA     PTCLDY    72  69  90 SE5       30.14R
NEW ORLEANS LA PTCLDY    77  73  87 CALM      30.05R
OKLAHOMA CITY  PTCLDY    70  61  73 S7        30.06R
ALBUQUERQUE NM MOCLDY    71  53  52 E10       30.27R
SALT LAKE CITY CLEAR     72  52  49 NW3       30.15R
LOS ANGELES CA CLEAR     68  63  84 W3        29.92S
BOISE ID       NOT AVBL
SEATTLE WA     CLEAR     68  51  54 NE6       30.10S
$$

*** WEATHER ACROSS MANITOBA...SASKATCHEWAN AND ONTARIO ***
                ***ONTARIO***

CITY           SKY/WX    TMP DP  RH WIND       PRES   REMARKS
GERALDTON      PTCLDY    54  50  87 NW10      29.67S
THUNDER BAY    PTCLDY    52  48  87 SW5       29.75R
SIOUX LOOKOUT  MOCLDY    52  48  87 W10G17    29.71F
TORONTO        CLOUDY    72  68  88 S12       29.79F FOG
BIG TROUT LK   LGT RAIN  50  48  93 W7        29.53R FOG
PICKLE LAKE    CLOUDY    48  46  93 W10       29.62
DRYDEN         MOCLDY    50  48  93 SW9       29.74F
KENORA         PTCLDY    52  46  82 W10G18    29.80F
$$
                *** MANITOBA***

CITY           SKY/WX    TMP DP  RH WIND       PRES   REMARKS
BRANDON        PTCLDY    50  46  87 NW12      29.98S
DAUPHIN        CLEAR     52  45  76 W14       29.93S
ISLAND LAKE    LGT RAIN N/A N/A N/A N17         N/A
PILOT MOUND      N/A     48  45  87 W6          N/A
THE PAS        MOCLDY    54  45  71 NW18      29.92R
THOMPSON       LGT RAIN  48  48 100 N16G23    29.68S
WINNIPEG       PTCLDY    54  48  82 W12       29.87F
LYNN LAKE      CLOUDY    50  46  87 N18G30    29.93R
CHURCHILL      LGT RAIN  39  37  93 NE22G29   29.77R FOG
GILLAM         CLOUDY    45  43  93 N13       29.64R
$$
                ***SASKATCHEWAN***

CITY           SKY/WX    TMP DP  RH WIND       PRES   REMARKS
ESTEVAN        CLEAR     46  46 100 NW6       30.12S FOG
KINDERSLEY     MOCLDY    57  52  82 CALM      30.22S
LLOYDMINSTER   MOCLDY    52  46  82 NW6       30.22S
PRINCE ALBERT  CLEAR     45  41  87 W6        30.15R
REGINA         CLEAR     43  41  93 NW8       30.15
YORKTON        CLEAR     52  45  76 NW13G22   30.04S
N. BATTLEFORD  CLEAR     43  43 100 NW3       30.23R FOG
LA RONGE       PTCLDY    48  43  81 NW7       30.15
SASKATOON      CLEAR     43  41  93 NW8       30.20R
SWIFT CURRENT  CLOUDY    54  52  94 W7        30.21S
$$
NOTE: THESE ARE AUTOMATED STATIONS WITH LIMITED QUALITY CONTROL
      "FAIR" INDICATES FEW OR NO CLOUDS BELOW 12,000 FEET WITH NO
      SIGNIFICANT WEATHER AND/OR OBSTRUCTIONS TO VISIBILITY.
      SKY/WX - SKY CONDITION AND SIGNIFICANT WEATHER.
      TMP - AIR TEMPERATURE.    DP   - DEWPOINT TEMPERATURE.
      RH  - RELATIVE HUMIDITY.  PRES - PRESSURE.
      HX  - HEAT INDEX.         WCI  - WIND CHILL INDEX.
$



USA.gov is the U.S. government's official web portal to all federal, state and local government web resources and services.